Simultaneous Nadir Overpasses (SNOs) Predictions

Prediction of SNOs between LANDSAT-8 and NOAA-19 Satellite Orbit:

Table of predicted SNOs for the next 14.0 days since TLE Epoch: 6/10/2023
Index Date (LANDSAT-8) Time (LANDSAT-8) Lat,Lon (LANDSAT-8) SZA (LANDSAT-8 ) Date (NOAA-19) Time (NOAA-19) Lat,Lon (NOAA-19) SZA (NOAA-19 ) Distance(km) Time Diff (sec)
1 06/10/2023 21:31:28 80.94,-105.60 59.85 06/10/2023 21:30:24 80.94,-105.76 59.81 2.84 64
2 06/10/2023 22:20:55 -80.93, 61.99 120.17 06/10/2023 22:21:21 -80.95, 62.12 120.13 2.75 26
3 06/13/2023 03:54:40 80.93, 158.50 59.67 06/13/2023 03:53:53 80.94, 158.66 59.68 3.29 47
4 06/13/2023 04:44:06 -80.95, -33.55 120.29 06/13/2023 04:44:50 -80.95, -33.67 120.28 2.20 44
5 06/15/2023 10:17:51 80.94, 62.85 59.57 06/15/2023 10:17:22 80.94, 63.02 59.58 3.04 29
6 06/15/2023 11:07:18 -80.94,-129.53 120.44 06/15/2023 11:08:19 -80.95,-129.50 120.40 1.04 61
7 06/17/2023 16:41:02 80.94, -32.91 59.48 06/17/2023 16:40:52 80.94, -33.06 59.47 2.69 10
8 06/19/2023 23:04:13 80.94,-128.77 59.42 06/19/2023 23:04:21 80.94,-128.83 59.42 1.34 8
9 06/22/2023 04:37:57 -80.95, -32.03 120.58 06/22/2023 04:36:47 -80.94, -31.86 120.60 3.14 70



Historial Predications of SNOs between LANDSAT-8 and NOAA-19
